Location: Hains Lake
(37.8540°N, 99.8578°W)
Time: 09:21:01
(UTC+00:00)

Tiros 1 despin weight - Pass Details

Date: 24 April 2021
Orbit: 593 x 642 km, 48.2° (Epoch: 07 May)

Event Time Altitude Azimuth Distance (km) Brightness Sun altitude
Rises 14:39:23 0° 305° (NW) 2,891 ? 31.9°
Reaches altitude 10° 14:41:53 10° 314° (NW) 1,975 ? 32.4°
Maximum altitude 14:46:02 34° 20° (NNE) 1,003 ? 33.2°
Drops below altitude 10° 14:50:07 10° 87° (E) 1,943 ? 34.0°
Sets 14:52:33 0° 96° (E) 2,837 ? 34.5°
